Le nostre stazioni meteo in Italia

Pubblicità
Il mio iltempo24.it
Kielder Castle, Gran Bretagna (99186): Temperatura & dewpoint: 10.10.2018 03:00:00 - 16.10.2018 03:00:00 (BST)Kielder Castle, Gran Bretagna (99186): Temperatura -20cm & Temperatura -100cm: 10.10.2018 03:00:00 - 16.10.2018 03:00:00 (BST)Kielder Castle, Gran Bretagna (99186): precipitazioni: 10.10.2018 03:00:00 - 16.10.2018 03:00:00 (BST)
Data & Tempo tt [°C] td [°C] tt -20cm [°C] tt -100cm [°C] rr [mm]
16.10.2018 03:00:00 6,4 6,3 - - 0,0
16.10.2018 02:00:00 6,4 6,4 - - 0,0
16.10.2018 01:00:00 6,1 6,1 - - 0,0
16.10.2018 00:00:00 5,9 5,9 - - 0,0
15.10.2018 23:00:00 5,2 5,2 - - 0,0
15.10.2018 22:00:00 3,8 3,8 - - 0,0
15.10.2018 21:00:00 2,9 2,8 - - 0,0
15.10.2018 20:00:00 3,2 2,7 - - 0,0
15.10.2018 19:00:00 4,6 3,7 - - 0,0
15.10.2018 18:00:00 7,1 5,2 - - 0,0
15.10.2018 17:00:00 9,9 5,2 - - 0,0
15.10.2018 16:00:00 12,1 5,0 - - 0,0
15.10.2018 15:00:00 12,2 5,5 - - 0,0
15.10.2018 14:00:00 12,0 5,3 - - 0,0
15.10.2018 13:00:00 8,6 8,4 - - 0,0
15.10.2018 12:00:00 6,5 6,3 - - 0,0
15.10.2018 11:00:00 4,8 4,6 - - 0,0
15.10.2018 10:00:00 2,8 2,6 11,0 12,0 0,0
15.10.2018 09:00:00 0,8 0,8 - - 0,2
15.10.2018 08:00:00 0,3 0,3 - - 0,0
15.10.2018 07:00:00 0,0 0,0 - - 0,0
15.10.2018 06:00:00 -0,2 -0,2 - - 0,0
15.10.2018 05:00:00 -0,7 -0,7 - - 0,0
15.10.2018 04:00:00 -0,7 -0,7 - - 0,0
15.10.2018 03:00:00 -0,5 -0,6 - - 0,0
15.10.2018 02:00:00 0,0 -0,1 - - 0,0
15.10.2018 01:00:00 0,7 0,6 - - 0,0
15.10.2018 00:00:00 1,1 0,9 - - 0,0
14.10.2018 23:00:00 1,8 1,6 - - 0,0
14.10.2018 22:00:00 2,2 2,0 - - 0,0
14.10.2018 21:00:00 3,3 3,1 - - 0,0
14.10.2018 20:00:00 4,1 3,6 - - 0,0
14.10.2018 19:00:00 5,6 5,1 - - 0,0
14.10.2018 18:00:00 7,4 6,5 - - 0,0
14.10.2018 17:00:00 9,6 6,6 - - 0,0
14.10.2018 16:00:00 11,8 6,8 - - 0,0
14.10.2018 15:00:00 10,1 7,9 - - 0,0
14.10.2018 14:00:00 8,2 7,1 - - 0,0
14.10.2018 13:00:00 8,0 7,6 - - 0,0
14.10.2018 12:00:00 7,5 7,4 - - 0,0
14.10.2018 11:00:00 7,2 7,1 - - 0,0
14.10.2018 10:00:00 6,9 6,9 12,0 12,0 0,0
14.10.2018 09:00:00 6,7 6,6 - - 0,0
14.10.2018 08:00:00 6,6 6,4 - - 0,0
14.10.2018 07:00:00 6,8 6,6 - - 0,0
14.10.2018 06:00:00 7,3 6,9 - - 0,0
14.10.2018 05:00:00 8,0 6,9 - - 0,0
14.10.2018 04:00:00 8,8 8,2 - - 0,0
14.10.2018 03:00:00 9,1 8,4 - - 0,0
14.10.2018 02:00:00 10,9 10,5 - - 0,2
14.10.2018 01:00:00 11,4 10,9 - - 1,6
14.10.2018 00:00:00 12,7 12,1 - - 0,8
13.10.2018 23:00:00 13,0 12,5 - - 3,4
13.10.2018 22:00:00 13,3 12,5 - - 0,4
13.10.2018 21:00:00 14,5 13,9 - - 1,4
13.10.2018 20:00:00 15,0 14,1 - - 5,2
13.10.2018 19:00:00 16,6 15,2 - - 0,4
13.10.2018 18:00:00 16,1 15,4 - - 0,4
13.10.2018 17:00:00 14,9 14,5 - - 6,8
13.10.2018 16:00:00 14,7 14,3 - - 2,8
13.10.2018 15:00:00 14,2 14,0 - - 0,6
13.10.2018 14:00:00 13,6 13,3 - - 0,6
13.10.2018 13:00:00 12,9 12,7 - - -
13.10.2018 12:00:00 12,6 12,3 - - 4,2
13.10.2018 11:00:00 12,7 12,5 - - 5,0
13.10.2018 10:00:00 12,8 12,7 11,7 12,2 2,6
13.10.2018 09:00:00 12,0 11,9 - - 2,2
13.10.2018 08:00:00 11,1 11,0 - - 0,8
13.10.2018 07:00:00 10,9 10,8 - - 0,6
13.10.2018 06:00:00 10,9 10,7 - - 1,0
13.10.2018 05:00:00 11,0 10,8 - - 1,6
13.10.2018 04:00:00 10,9 10,6 - - 3,2
13.10.2018 03:00:00 10,7 10,2 - - 2,0
13.10.2018 02:00:00 11,8 11,1 - - 0,8
13.10.2018 01:00:00 12,2 11,2 - - 0,0
13.10.2018 00:00:00 12,2 11,0 - - 0,0
12.10.2018 23:00:00 12,4 11,2 - - 0,2
12.10.2018 22:00:00 12,4 11,4 - - 0,0
12.10.2018 21:00:00 13,2 12,1 - - 0,0
12.10.2018 20:00:00 13,4 13,1 - - 1,0
12.10.2018 19:00:00 11,5 11,2 - - 1,6
12.10.2018 18:00:00 11,7 11,2 - - 4,6
12.10.2018 17:00:00 12,9 11,9 - - 6,2
12.10.2018 16:00:00 15,5 14,2 - - 1,2
12.10.2018 15:00:00 15,4 13,8 - - 0,6
12.10.2018 14:00:00 14,0 13,0 - - 0,4
12.10.2018 13:00:00 14,5 12,7 - - 0,2
12.10.2018 12:00:00 14,9 12,0 - - 0,0
12.10.2018 11:00:00 14,2 11,4 - - 0,0
12.10.2018 10:00:00 13,4 11,2 11,7 11,7 0,0
12.10.2018 09:00:00 12,7 11,1 - - 0,0
12.10.2018 08:00:00 10,4 9,7 - - 0,6
12.10.2018 07:00:00 9,9 9,3 - - 3,8
12.10.2018 06:00:00 8,6 7,8 - - 0,2
12.10.2018 05:00:00 7,8 7,6 - - 0,0
12.10.2018 04:00:00 7,5 7,2 - - 0,0
12.10.2018 03:00:00 7,3 7,1 - - 0,0
12.10.2018 02:00:00 6,7 6,5 - - 0,0
12.10.2018 01:00:00 7,5 7,2 - - 0,0
12.10.2018 00:00:00 8,5 8,1 - - 0,0
11.10.2018 23:00:00 9,8 9,1 - - 0,0
11.10.2018 22:00:00 10,0 9,4 - - 0,0
11.10.2018 21:00:00 10,4 10,0 - - 0,2
11.10.2018 20:00:00 10,6 10,1 - - 0,4
11.10.2018 19:00:00 10,8 9,7 - - 2,6
11.10.2018 18:00:00 13,9 12,1 - - 0,0
11.10.2018 17:00:00 14,4 11,9 - - 0,2
11.10.2018 16:00:00 15,9 10,8 - - 0,0
11.10.2018 15:00:00 15,9 11,2 - - 0,0
11.10.2018 14:00:00 16,4 11,1 - - 0,0
11.10.2018 13:00:00 15,1 13,0 - - 0,0
11.10.2018 12:00:00 13,9 12,4 - - 0,0
11.10.2018 11:00:00 13,8 12,2 - - 0,0
11.10.2018 10:00:00 13,2 12,0 11,4 11,7 0,0
11.10.2018 09:00:00 12,7 11,8 - - 0,0
11.10.2018 08:00:00 12,5 11,7 - - 0,0
11.10.2018 07:00:00 12,5 11,7 - - 0,0
11.10.2018 06:00:00 12,4 11,6 - - 0,0
11.10.2018 05:00:00 12,3 11,4 - - 0,0
11.10.2018 04:00:00 12,2 11,4 - - 0,0
11.10.2018 03:00:00 10,1 9,9 - - 0,0
11.10.2018 02:00:00 9,3 8,7 - - 0,0
11.10.2018 01:00:00 9,3 8,6 - - 0,0
11.10.2018 00:00:00 11,0 10,0 - - 0,0
10.10.2018 23:00:00 10,5 10,4 - - 0,0
10.10.2018 22:00:00 9,4 9,0 - - 0,0
10.10.2018 21:00:00 11,1 10,7 - - 0,0
10.10.2018 20:00:00 11,8 10,6 - - 0,0
10.10.2018 19:00:00 15,2 12,5 - - 0,0
10.10.2018 18:00:00 16,8 12,7 - - 0,0
10.10.2018 17:00:00 17,9 12,3 - - 0,0
10.10.2018 16:00:00 19,7 13,4 - - 0,0
10.10.2018 15:00:00 19,7 12,2 - - 0,0
10.10.2018 14:00:00 19,3 13,0 - - 0,0
10.10.2018 13:00:00 17,3 11,8 - - 0,0
10.10.2018 12:00:00 16,0 10,8 - - 0,0
10.10.2018 11:00:00 14,3 10,0 - - 0,0
10.10.2018 10:00:00 11,3 11,0 11,4 11,7 0,0
10.10.2018 09:00:00 6,6 6,4 - - 0,0
10.10.2018 08:00:00 6,2 5,8 - - 0,0
10.10.2018 07:00:00 8,0 7,5 - - 0,0
10.10.2018 06:00:00 9,4 8,0 - - 0,0
10.10.2018 05:00:00 10,7 8,9 - - 0,0
10.10.2018 04:00:00 10,1 8,2 - - 0,0
10.10.2018 03:00:00 10,2 8,2 - - 0,0

tt = Temperatura
td = dewpoint
tt -20cm = Temperatura -20cm
tt -100cm = Temperatura -100cm
rr = precipitazioni

Stazioni seguenti

WeatherPro
AMSI
MeteoEarth